TimeAKDT,TemperatureF,Dew PointF,Humidity,Sea Level PressureIn,VisibilityMPH,Wind Direction,Wind SpeedMPH,Gust SpeedMPH,PrecipitationIn,Events,Conditions,WindDirDegrees,DateUTC
12:53 AM,-20.9,-24.0,86,30.17,10.0,WSW,3.5,-,N/A,,Clear,250,2013-03-29 08:53:00
1:53 AM,-23.1,-26.0,86,30.17,10.0,SSE,3.5,-,N/A,,Clear,160,2013-03-29 09:53:00
2:53 AM,-23.1,-26.0,86,30.17,10.0,Calm,Calm,-,N/A,,Clear,0,2013-03-29 10:53:00
3:53 AM,-23.1,-27.9,78,30.17,10.0,Calm,Calm,-,N/A,,Clear,0,2013-03-29 11:53:00
4:53 AM,-25.1,-27.9,86,30.17,10.0,NNE,3.5,-,N/A,,Clear,20,2013-03-29 12:53:00
5:53 AM,-25.1,-27.9,86,30.17,10.0,NNE,5.8,-,N/A,,Clear,30,2013-03-29 13:53:00
6:53 AM,-26.0,-29.0,85,30.16,10.0,NNE,6.9,-,N/A,,Clear,20,2013-03-29 14:53:00
7:53 AM,-26.0,-27.9,90,30.17,10.0,NNE,5.8,-,N/A,,Clear,20,2013-03-29 15:53:00
8:53 AM,-25.1,-27.9,86,30.16,8.0,NNE,8.1,-,N/A,,Clear,20,2013-03-29 16:53:00
9:21 AM,-25.6,-29.2,83,30.15,8.0,NNE,6.9,-,N/A,,Scattered Clouds,20,2013-03-29 17:21:00
9:30 AM,-25.6,-27.4,91,30.15,10.0,NNE,6.9,-,N/A,,Mostly Cloudy,20,2013-03-29 17:30:00
9:53 AM,-23.1,-27.0,82,30.16,9.0,North,4.6,-,N/A,,Mostly Cloudy,10,2013-03-29 17:53:00
10:24 AM,-20.2,-25.6,76,30.15,7.0,North,4.6,-,N/A,,Scattered Clouds,10,2013-03-29 18:24:00
10:53 AM,-20.0,-25.1,78,30.15,9.0,NNE,4.6,-,N/A,,Clear,20,2013-03-29 18:53:00
11:53 AM,-18.0,-23.1,78,30.15,10.0,NNE,5.8,-,N/A,,Clear,30,2013-03-29 19:53:00
12:53 PM,-14.1,-18.9,79,30.15,10.0,NE,8.1,-,N/A,,Clear,50,2013-03-29 20:53:00
1:53 PM,-11.0,-15.0,83,30.15,10.0,ENE,8.1,-,N/A,,Clear,60,2013-03-29 21:53:00
2:53 PM,-9.0,-14.1,79,30.15,10.0,ENE,8.1,-,N/A,,Clear,60,2013-03-29 22:53:00
3:53 PM,-8.0,-13.0,79,30.14,10.0,NE,10.4,-,N/A,,Clear,40,2013-03-29 23:53:00
4:53 PM,-7.1,-11.9,79,30.14,10.0,NE,6.9,-,N/A,,Clear,50,2013-03-30 00:53:00
5:53 PM,-7.1,-11.9,79,30.14,10.0,ENE,6.9,-,N/A,,Clear,60,2013-03-30 01:53:00
6:53 PM,-9.9,-13.0,86,30.14,10.0,East,4.6,-,N/A,,Clear,80,2013-03-30 02:53:00
7:53 PM,-11.0,-15.0,83,30.14,10.0,ENE,4.6,-,N/A,,Clear,60,2013-03-30 03:53:00
8:53 PM,-11.9,-15.0,86,30.15,10.0,NE,8.1,-,N/A,,Clear,50,2013-03-30 04:53:00
9:53 PM,-15.0,-18.0,86,30.15,10.0,NE,8.1,-,N/A,,Clear,50,2013-03-30 05:53:00
10:53 PM,-18.0,-23.1,78,30.16,10.0,ENE,5.8,-,N/A,,Clear,60,2013-03-30 06:53:00
11:53 PM,-18.0,-22.0,82,30.17,10.0,NE,4.6,-,N/A,,Clear,50,2013-03-30 07:53:00